Location: Croagnes
(43.9363°N, 5.3265°E)
Time: 22:22:25
(UTC+00:00)

Meteor 1-16 Rocket - Pass Details

Date: 06 October 2020
Orbit: 790 x 908 km, 81.2° (Epoch: 22 October)

Event Time Altitude Azimuth Distance (km) Brightness Sun altitude
Rises 19:57:31 0° 206° (SSW) 3,518 7.5 -30.4°
Reaches altitude 10° 20:00:06 10° 212° (SSW) 2,575 6.8 -30.8°
Maximum altitude 20:05:44 47° 286° (WNW) 1,173 5.2 -31.7°
Drops below altitude 10° 20:11:19 10° 359° (N) 2,538 7.0 -32.6°
Sets 20:13:51 0° 6° (N) 3,463 7.6 -33.0°
